Location: *
(43.9905°S, 176.4941°W)
Time: 23:57:30
(UTC+00:00)

Thor Agena Rocket - Pass Details

Date: 08 December 2019
Orbit: 760 x 807 km, 99.0° (Epoch: 26 January)

Event Time Altitude Azimuth Distance (km) Brightness Sun altitude
Exits shadow 08:18:12 11° 34° (NNE) 2,325 5.4 -9.2°
Maximum altitude 08:23:11 56° 110° (ESE) 972 3.9 -9.8°
Drops below altitude 10° 08:28:26 10° 186° (S) 2,427 6.9 -10.5°
Sets 08:30:50 0° 190° (S) 3,366 7.9 -10.8°
